Terminal Aerodrome Forecast
Issued by NWS

Home | Current Version | Previous Version | Graphics & Text | Print | Product List | Glossary On
Versions: 1 2 3 4 5 6 7 8 9 10 11 12 13 14 15 16 17 18 19 20 21 22 23 24 25 26 27 28
000
FTUS43 KBIS 300528
TAFMOT
TAF
KMOT 300528Z 3006/0106 10006KT P6SM SCT080 BKN120
     FM300900 15004KT P6SM -SHRA BKN050 OVC100
     FM301200 14008KT P6SM BKN050 OVC080
     FM302100 09008KT P6SM -SHRA VCTS BKN050 OVC080CB
     FM010400 06005KT P6SM BKN035 OVC100=

USA.gov is the U.S. government's official web portal to all federal, state and local government web resources and services.